Tracking 29790 objects as of 12-Oct-2024
HD Live streaming from Space Station
objects crossing your sky now

NAVSTAR 10 (USA 5)

Track NAVSTAR 10 (USA 5) now!
NAVSTAR 10 (USA 5) is classified as:


NORAD ID: 15271
Int'l Code: 1984-097A
Perigee: 20,518.2 km
Apogee: 21,311.3 km
Inclination: 62.6 °
Period: 747.6 minutes
Semi major axis: 27285 km
RCS: 1.5246 m2 (large)
Launch date: September 8, 1984
Source: United States (US)
Launch site: AIR FORCE WESTERN TEST RANGE (AFWTR)
Your satellite tracking list
Your tracking list is empty




NASA's NSSDC Master Catalog

Two Line Element Set (TLE):
1 15271U 84097A   24285.52209030  .00000012  00000-0  00000-0 0  9999
2 15271  62.6236 309.4170 0145326 227.9790 127.9564  1.92618894284493
Source of the keplerian elements: AFSPC